Regional Weather Roundup
Issued by NWS Kansas City/Pleasant Hill, MO

Home | Current Version | Previous Version | Text Only | Print | Product List | Glossary On
Versions: 1 2 3 4 5 6 7 8 9 10 11 12 13 14 15 16 17 18 19 20 21 22 23 24 25 26 27 28
000
ASUS43 KEAX 281210
RWREAX

WEATHER ROUNDUP FOR EASTERN KANSAS AND NORTHWEST MISSOURI
NATIONAL WEATHER SERVICE KANSAS CITY/PLEASANT HILL MO
700 AM CDT SAT MAY 28 2016

KSZ040-057-103>105-MOZ028-029-037-043-281300-
...KANSAS CITY METROPOLITAN AREA...

CITY           SKY/WX    TMP DP  RH WIND       PRES   REMARKS
K.C. INTL      CLOUDY    61  58  90 SE7       29.78R
6HR MIN TEMP:  56; 6HR MAX TEMP:  61; 6HR PCP:  0.01;

K.C. DOWNTOWN  CLOUDY    62  59  90 E5        29.78S
6HR MIN TEMP:  59; 6HR MAX TEMP:  62;

LEES SUMMIT    PTSUNNY   60  58  92 SE7       29.79S
6HR MIN TEMP:  58; 6HR MAX TEMP:  60;

OLATHE - IXD   CLOUDY    61  59  93 S7        29.79R
6HR MIN TEMP:  57; 6HR MAX TEMP:  61; 6HR PCP:  0.01;

OLATHE - OJC   CLOUDY    59  58  96 SE5       29.78S
6HR MIN TEMP:  57; 6HR MAX TEMP:  59;

LAWRENCE       PTSUNNY   60  59  96 SE8       29.76S

$$

MOZ001>008-011>017-020>025-030>033-038>040-044>046-053-054-281300-
...NORTHERN AND CENTRAL MISSOURI...

CITY           SKY/WX    TMP DP  RH WIND       PRES   REMARKS
ST. JOSEPH     PTSUNNY   60  58  92 SE8       29.76F
6HR MIN TEMP:  59; 6HR MAX TEMP:  61; 6HR PCP: TRACE;

MOSBY          CLOUDY    61  59  94 SE5       29.79S
WHITEMAN AFB   SUNNY     64  64 100 S9        29.80S
6HR MIN TEMP:  60; 6HR MAX TEMP:  64;

CLINTON        PTSUNNY   64  63  94 S6        29.82R
SEDALIA        MOSUNNY   65  62  90 S10       29.83R
6HR MIN TEMP:  61; 6HR MAX TEMP:  69; 6HR PCP: TRACE;

WARSAW         NOT AVBL
CHILLICOTHE      N/A     60  60 100 CALM      29.80F
6HR MIN TEMP:  60; 6HR MAX TEMP:  67; 6HR PCP:  0.13;

KIRKSVILLE     MOSUNNY   64  62  93 SW8       29.81R
6HR MIN TEMP:  63; 6HR MAX TEMP:  65; 6HR PCP:  0.03;


$$

MOZ041-047>049-056>058-063>065-088>090-097-281300-
...EASTERN AND SOUTHERN MISSOURI...

CITY           SKY/WX    TMP DP  RH WIND       PRES   REMARKS
ST. LOUIS INTL CLOUDY    69  64  84 S10       29.90R
6HR MIN TEMP:  68; 6HR MAX TEMP:  71;

SPIRIT OF STL  PTSUNNY   68  65  90 S7        29.88R
COLUMBIA       CLOUDY    66  64  93 S9        29.85R
JEFFERSON CITY CLOUDY    66  63  90 SE7       29.85R
ROLLA          CLOUDY    64  62  93 S8        29.87R
SPRINGFIELD    MOSUNNY   63  60  90 S9        29.86R
BRANSON        PTSUNNY   61  61 100 SE6       29.90R
JOPLIN         MOCLDY    64  61  90 S17       29.85R
WEST PLAINS    CLOUDY    66  62  87 S6        29.93R

$$

IAZ060-094-KSZ022-034>040-054-083-096-NEZ052-066-093-281300-
...KANSAS...SOUTHEAST NEBRASKA AND IOWA...

CITY           SKY/WX    TMP DP  RH WIND       PRES   REMARKS
TOPEKA         MOCLDY    61  58  90 SE3       29.76R
6HR MIN TEMP:  58; 6HR MAX TEMP:  61;

MANHATTAN      CLOUDY    60  58  92 CALM      29.75R
EMPORIA        CLEAR     59  56  89 SW10      29.77R
CHANUTE        PTCLDY    64  61  90 S14       29.80R
WICHITA        PTCLDY    57  55  93 SW6       29.81R
OMAHA          PTSUNNY   62  58  86 S10       29.74S
LINCOLN        CLOUDY    57  55  93 S5        29.76R
FALLS CITY     CLOUDY    60  59  96 SE3       29.74F
LAMONI         CLOUDY    63  62  97 S9        29.77R
DES MOINES     PTSUNNY   62  59  90 SE6       29.75R

$$





USA.gov is the U.S. government's official web portal to all federal, state and local government web resources and services.